[[{"header":{"parameterUnit":"m.s-1","parameterCategory":1,"la1":30.2992,"la2":30.254,"lo1":-89.0895,"lo2":-89.0443,"dy":0.0025,"dx":0.0025,"nx":19,"ny":19,"refTime":"2026-04-07T21:00:00:Z","depth":0,"parameterNumber":2,"parameterNumberName":"U-component_of_WINDS"},"data":[0,0,0,-5.7498,-5.75,-5.7583,-5.7583,-5.7725,-5.7727,0,0,0,0,0,0,0,0,0,0,0,-5.7494,-5.7496,-5.7497,-5.75,-5.7583,-5.7583,-5.7725,-5.7727,0,0,0,0,0,0,0,0,0,0,0,-5.7493,-5.7495,-5.7497,-5.75,-5.7582,-5.7583,-5.7724,-5.7649,0,0,0,0,0,0,0,0,0,0,-5.7563,-5.7579,-5.7495,-5.7497,-5.7501,-5.7582,-5.7583,-5.7645,-5.7654,-5.7703,0,-5.7751,0,-5.7741,-5.7738,-5.7739,0,0,0,-5.7485,-5.7572,-5.7576,-5.7498,-5.7502,-5.7582,-5.7541,-5.765,-5.766,-5.7715,-5.7753,-5.7757,-5.7744,-5.774,-5.774,-5.8073,-5.8075,0,0,-5.748,-5.752,-5.7569,-5.7583,-5.7571,-5.7538,-5.7544,-5.7655,-5.7699,-5.7753,-5.776,-5.7746,-5.7741,-5.7742,-5.8071,-5.8074,0,0,0,-5.7477,-5.7518,-5.7517,-5.7578,-5.7591,-5.7541,-5.7547,-5.7694,-5.7691,-5.7761,-5.7748,-5.7742,-5.7744,-5.8068,-5.8072,-5.8223,0,0,0,-5.7474,-5.7516,-5.7516,-5.7542,-5.7589,-5.7643,-5.7584,-5.7683,-5.7694,-5.7747,-5.7742,-5.7746,-5.8066,-5.807,-5.8213,-5.8288,0,0,0,-5.7481,-5.7516,-5.7535,-5.7544,-5.758,-5.764,-5.7643,-5.7684,-5.7687,-5.7739,-5.7746,-5.8064,-5.8069,-5.8205,-5.8273,-5.8387,0,0,0,-5.7501,-5.7668,-5.7539,-5.7721,-5.758,-5.7733,-5.7641,-5.7753,-5.7816,-5.7743,-5.8066,-5.8072,-5.8202,-5.8264,-5.8378,-5.849,-5.854,0,0,-5.7734,-5.7698,-5.7802,-5.7688,-5.7874,-5.7717,-5.7926,-5.7946,-5.7914,-5.8022,-5.803,-5.8217,-5.8272,-5.8385,-5.8809,-5.8849,0,0,0,-5.7889,-5.7964,-5.8005,-5.8066,-5.8086,-5.8109,-5.8092,-5.81,-5.819,-5.7978,-5.8287,-5.8319,-5.8384,-5.8436,-5.847,-5.8523,-5.8097,-5.8097,-5.8096,-5.8275,-5.8227,-5.8396,-5.8359,-5.842,-5.8403,-5.8448,-5.8456,-5.8388,-5.8463,-5.8494,-5.8757,-5.8819,-5.8844,-5.8901,-5.855,-5.855,-5.8551,-5.8551,-5.8612,-5.8711,-5.862,-5.8751,-5.87,-5.881,-5.8802,-5.8751,-5.8847,-5.8729,-5.8784,-5.8658,-5.889,-5.8937,-5.8562,-5.856,-5.8559,-5.8558,-5.8557,-5.8859,-5.8898,-5.8905,-5.8991,-5.9063,-5.902,-5.9117,-5.9067,-5.9021,-5.9075,-5.9103,-5.9101,-5.9092,-5.9092,-5.9093,-5.9094,-5.9095,-5.9095,-5.9096,-5.9111,-5.9115,-5.9202,-5.9239,-5.9273,-5.9312,-5.93,-5.9332,-5.9356,-5.9312,-5.9312,-5.9239,-5.8922,-5.8843,-5.911,-5.9107,-5.9106,-5.9104,-5.9103,-5.9469,-5.9381,-5.9516,-5.9551,-5.9592,-5.9668,-5.9604,-5.9676,-5.9696,-5.9746,-5.9662,-5.9436,-5.9395,-5.9367,-5.9302,-5.9671,-5.9671,-5.9671,-5.9671,-5.9677,-5.9652,-5.978,-5.9839,-5.9892,-5.9848,-6.0006,-5.9999,-5.9978,-5.9988,-5.9928,-5.9837,-5.9811,-5.9785,-5.9749,-5.9687,-6.0146,-6.0146,-6.0147,-5.9895,-5.9873,-6.0015,-5.9993,-6.0022,-6.0049,-6.0195,-6.0269,-6.0227,-6.0165,-5.9995,-5.9975,-5.9828,-5.9782,-5.9715,-5.9659,-5.9544,0,0]},{"header":{"parameterUnit":"m.s-1","parameterCategory":1,"la1":30.2992,"la2":30.254,"lo1":-89.0895,"lo2":-89.0443,"dy":0.0025,"dx":0.0025,"nx":19,"ny":19,"refTime":"2026-04-07T21:00:00:Z","depth":0,"parameterNumber":3,"parameterNumberName":"V-component_of_WINDS"},"data":[0,0,0,1.8493,1.8493,1.8509,1.8509,1.8503,1.8503,0,0,0,0,0,0,0,0,0,0,0,1.8476,1.8475,1.8493,1.8493,1.8509,1.8509,1.8504,1.8503,0,0,0,0,0,0,0,0,0,0,0,1.8476,1.8475,1.8475,1.8494,1.8509,1.8509,1.8504,1.85,0,0,0,0,0,0,0,0,0,0,1.849,1.8461,1.8476,1.8475,1.8494,1.8509,1.8509,1.8501,1.8501,1.8487,0,1.8472,0,1.8488,1.8501,1.8501,0,0,0,1.8502,1.8461,1.8477,1.8475,1.8494,1.8509,1.8504,1.8501,1.8501,1.8486,1.8473,1.8473,1.8488,1.8501,1.8501,1.8396,1.8395,0,0,1.8502,1.8471,1.8477,1.8477,1.8475,1.8504,1.8505,1.8501,1.8483,1.8473,1.8473,1.8488,1.8501,1.8501,1.8397,1.8396,0,0,0,1.8493,1.8469,1.8487,1.8476,1.8481,1.8504,1.8505,1.8483,1.8492,1.8473,1.8488,1.8501,1.8501,1.8398,1.8396,1.832,0,0,0,1.8493,1.8465,1.8486,1.8467,1.8481,1.8483,1.8487,1.8492,1.8493,1.8488,1.8501,1.85,1.8399,1.8397,1.8325,1.8288,0,0,0,1.8479,1.8463,1.8461,1.8465,1.8471,1.8484,1.8492,1.8493,1.8501,1.8501,1.85,1.84,1.8397,1.8329,1.8295,1.825,0,0,0,1.8454,1.8392,1.846,1.8396,1.8471,1.8438,1.8492,1.8469,1.8461,1.8501,1.8399,1.8396,1.833,1.8299,1.8254,1.8206,1.8183,0,0,1.8358,1.8379,1.8345,1.8406,1.8353,1.8438,1.8374,1.8395,1.8422,1.8403,1.84,1.8323,1.8295,1.8251,1.8074,1.8056,0,0,0,1.8303,1.8277,1.8271,1.8263,1.828,1.829,1.8325,1.8333,1.8318,1.8407,1.8298,1.8282,1.8257,1.8235,1.822,1.82,1.8386,1.8386,1.8386,1.8119,1.8161,1.8106,1.8149,1.8141,1.8179,1.8176,1.8193,1.8235,1.8209,1.8202,1.809,1.8063,1.8052,1.803,1.8182,1.8182,1.8182,1.8182,1.798,1.7949,1.8011,1.7979,1.8023,1.7996,1.8031,1.8062,1.8042,1.8098,1.8078,1.8132,1.8031,1.8014,1.8176,1.8177,1.8178,1.8178,1.8179,1.7861,1.7854,1.7867,1.7862,1.7853,1.79,1.7878,1.792,1.7957,1.7939,1.7935,1.7936,1.794,1.7935,1.7934,1.7934,1.7934,1.7933,1.7933,1.7731,1.7749,1.7727,1.7742,1.7744,1.775,1.7791,1.7792,1.7804,1.7835,1.7835,1.7879,1.8015,1.8046,1.7927,1.7928,1.7929,1.793,1.793,1.7568,1.7613,1.7579,1.758,1.7602,1.7589,1.7645,1.7645,1.7652,1.764,1.769,1.7785,1.7808,1.7821,1.7846,1.7683,1.7683,1.7683,1.7683,1.7465,1.7484,1.7459,1.7459,1.7464,1.7511,1.7469,1.75,1.7539,1.7546,1.7577,1.7616,1.7627,1.7644,1.766,1.7684,1.7484,1.7483,1.7483,1.7367,1.7388,1.7345,1.7386,1.7407,1.7423,1.7385,1.7381,1.7434,1.7476,1.7552,1.756,1.7624,1.7644,1.7682,1.7706,1.7752,0,0]}]]